FW0523 Weather Reports


Display with metric or nautical units.
time (UTC)temp
F
wind
direction
speed
MPH
gust
MPH
rain 1hr
in
rain 24hr
in
rain mn
in
humidity
%
barometer
mb
20260504212104 60 349 0.0 3.0 0.00 0.00 5.37 33 1013.9
20260504211103 60 16 3.0 6.0 0.00 0.00 5.37 35 1014.2
20260504205104 60 326 0.0 4.0 0.00 0.00 5.37 39 1014.4
20260504204103 59 343 4.0 9.0 0.00 0.00 5.37 41 1014.7
20260504203103 59 0 2.0 6.0 0.00 0.00 5.37 42 1014.7
20260504202104 59 344 1.0 8.0 0.00 0.00 5.37 41 1014.8
20260504201102 59 350 3.0 3.0 0.00 0.00 5.37 42 1014.8
20260504192903 57 343 4.0 9.0 0.00 0.00 5.37 47 1015.1
20260504191904 58 0 3.0 12.0 0.00 0.00 5.37 46 1015.2
20260504190904 58 350 4.0 6.0 0.00 0.00 5.37 46 1015.2
20260504185903 61 11 4.0 8.0 0.00 0.00 5.37 40 1015.4
20260504184903 61 304 2.0 10.0 0.00 0.00 5.37 32 1015.2
20260504183904 61 264 3.0 10.0 0.00 0.00 5.37 33 1015.6
20260504181804 60 21 0.0 8.0 0.00 0.00 5.37 37 1016.0
20260504174604 58 328 3.0 10.0 0.00 0.00 5.37 43 1016.7
20260504173603 57 294 3.0 13.0 0.00 0.00 5.37 48 1017.0
20260504172604 56 127 3.0 8.0 0.00 0.00 5.37 49 1017.0
20260504171604 57 7 4.0 10.0 0.00 0.00 5.37 45 1016.6
20260504160403 53 336 1.0 10.0 0.00 0.00 5.37 59 1017.5
20260504150304 49 123 0.0 0.0 0.00 0.00 5.37 78 1017.9
20260504141302 47 360 2.0 10.0 0.00 0.00 5.37 82 1018.0
20260504140303 46 196 0.0 0.0 0.00 0.00 5.37 83 1018.2
20260504130304 43 69 4.0 5.0 0.00 0.00 5.37 84 1018.3
20260504120104 44 216 3.0 9.0 0.00 0.00 5.37 83 1018.7
20260504110104 44 1 0.0 1.0 0.00 0.00 5.37 82 1019.9
20260504080603 46 360 0.0 7.0 0.00 0.00 3.73 74 1020.0
20260504050503 50 253 2.0 13.0 0.00 0.00 0.05 40 1018.8
20260504044403 49 335 1.0 5.0 0.00 0.00 0.05 41 1018.8
20260504041203 49 224 2.0 10.0 0.00 0.00 0.05 41 1019.1
20260504034003 50 210 0.0 8.0 0.00 0.00 0.05 41 1019.1
20260504033003 50 360 0.0 4.0 0.00 0.00 0.05 41 1018.9
20260504032006 51 360 2.0 3.0 0.00 0.00 0.05 40 1018.9
20260504031003 51 182 1.0 3.0 0.00 0.00 0.05 40 1019.1
20260504030003 52 195 2.0 3.0 0.00 0.00 0.05 40 1018.8
20260504025004 53 174 1.0 8.0 0.00 0.00 0.05 39 1018.8
20260504024002 53 360 1.0 3.0 0.00 0.00 0.05 38 1018.8
20260504021903 55 360 4.0 9.0 0.00 0.00 0.05 36 1018.4
20260504020903 56 360 0.0 5.0 0.00 0.00 0.05 36 1018.4
20260504015904 56 360 0.0 8.0 0.00 0.00 0.05 35 1018.4
20260504014902 57 274 0.0 9.0 0.00 0.00 0.05 34 1018.4
20260504012803 58 257 0.0 7.0 0.00 0.00 0.05 30 1018.3
20260504011803 59 246 2.0 9.0 0.00 0.00 0.05 28 1018.4
20260504010804 59 188 5.0 9.0 0.00 0.00 0.05 27 1018.4
20260504005802 59 178 3.0 13.0 0.00 0.00 0.05 27 1018.7
20260504004803 60 220 8.0 14.0 0.00 0.00 0.05 27 1018.7
20260504003804 60 38 1.0 1.0 0.00 0.00 0.05 27 1018.6
20260504002802 60 344 0.0 3.0 0.00 0.00 0.05 26 1018.7
20260504001803 60 344 0.0 0.0 0.00 0.00 0.05 27 1018.8
20260504000803 61 330 0.0 3.0 0.00 0.00 0.05 27 1018.8
20260503235802 61 360 1.0 9.0 0.00 0.00 0.05 26 1018.8
20260503234803 61 360 3.0 10.0 0.00 0.00 0.05 27 1019.1
20260503233803 61 360 2.0 9.0 0.00 0.00 0.05 27 1019.2
20260503232804 61 224 0.0 4.0 0.00 0.00 0.05 27 1019.2
20260503231802 61 72 1.0 12.0 0.00 0.00 0.05 28 1019.3
20260503230803 61 136 4.0 12.0 0.00 0.00 0.05 27 1019.7
20260503225804 62 360 6.0 16.0 0.00 0.00 0.05 24 1019.9
20260503224802 64 86 3.0 9.0 0.00 0.00 0.05 21 1019.3
20260503223803 64 175 2.0 16.0 0.00 0.00 0.05 20 1019.5
20260503222803 63 191 1.0 4.0 0.00 0.00 0.05 22 1019.3
20260503221802 62 100 3.0 10.0 0.00 0.00 0.05 21 1019.5
20260503220803 62 66 1.0 3.0 0.00 0.00 0.05 22 1019.7
20260503215804 61 325 0.0 0.0 0.00 0.00 0.05 23 1020.0
20260503214802 60 325 0.0 6.0 0.00 0.00 0.05 24 1020.3
20260503213804 59 38 6.0 13.0 0.00 0.00 0.05 27 1020.5